Notices

What's New in latest Release from April 7th, 2021:

- Updated Glossary, including Speed of Maximum Gust, and Total Hourly Precipitation

- Updated national and regional climate services offices contacts and prices information

- Addition of station inventory lists for 1981-2010, 1971-2000, and 1961-1990 Normals.

If you haven't already, please take our survey and provide feedback about our website: https://eccc.sondage-survey.ca/f/LanguageSelection.aspx?s=442ca660-fcf1-47c0-95a9-59707d6fd709

Hourly Data Report for January 31, 2021

CARBERRY CS
MANITOBA
Current Station Operator: ECCC - MSC

49°54'20.900" N
99°21'26.800" W
383.50 m
5010547
71170
WZE

Download Data

Hourly Data (January 2021)
Hourly Data Report for January 31, 2021
TIME
LST
Temp Definition
°C
Dew Point Definition
°C
Rel Hum Definition
%
Precip. Amount Definition
mm

Wind Dir Definition
10's deg

Wind Spd Definition
km/h
Visibility Definition
km
Stn Press Definition
kPa
Hmdx Definition


Wind Chill Definition


Weather Definition


00:00 -7.0 -7.2 98 0.0 34 3   97.47   -9 LegendNANA
01:00 -7.2 -7.6 97 0.0 1 2   97.50   -8 LegendNANA
02:00 -7.4 -8.2 94 0.0 36 5   97.54   -10 LegendNANA
03:00 -7.6 -8.4 94 0.0 34 3   97.59   -9 LegendNANA
04:00 -8.0 -9.2 91 0.0 1 6   97.65   -11 LegendNANA
05:00 -8.3 -9.4 91 0.0 36 4   97.70   -10 LegendNANA
06:00 -8.3 -9.3 92 0.0 33 4   97.75   -10 LegendNANA
07:00 -8.3 -9.3 92 0.0 28 2   97.77   -9 LegendNANA
08:00 -8.2 -9.0 93 0.0 31 3   97.84   -10 LegendNANA
09:00 -7.9 -8.9 93 0.0 27 3   97.90   -9 LegendNANA
10:00 -7.3 -9.1 86 0.0 28 6   97.95   -10 LegendNANA
11:00 -7.2 -9.1 87 0.0 1 4   97.97   -9 LegendNANA
12:00 -6.8 -9.1 84 0.0 4 2   97.96   -8 LegendNANA
13:00 -6.2 -9.4 78 0.0 33 6   97.93   -9 LegendNANA
14:00 -6.0 -9.4 77 0.0 30 9   97.95   -10 LegendNANA
15:00 -5.7 -9.0 78 0.0 29 9   97.99   -10 LegendNANA
16:00 -5.6 -8.6 79 0.0 29 8   98.00   -9 LegendNANA
17:00 -5.6 -8.4 81 0.0 29 10   98.01   -10 LegendNANA
18:00 -5.7 -8.2 83 0.0 27 6   98.05   -9 LegendNANA
19:00 -5.9 -8.4 82 0.0 27 8   98.09   -10 LegendNANA
20:00 -5.9 -8.4 83 0.0 26 9   98.10   -10 LegendNANA
21:00 -6.2 -8.2 86 0.0 27 8   98.08   -10 LegendNANA
22:00 -6.5 -8.3 87 0.0 28 4   98.01   -8 LegendNANA
23:00 -6.7 -8.4 87 0.0 28 5   98.08   -9 LegendNANA

Notes on Data Quality.

Legend

  • E = Estimated
  • M = Missing
  • NA = Not Available*
  • [empty] = Indicates an unobserved value
Date modified: